Find OneWeb SL0243

NORAD ID: 48774 Int'l Des: 2021-045 Owner: ONEWEBN Country: UK Constellation: oneweb operational
LEOCIRCULARPOLARONEWEB_TYPE

当前视图

正在加载3D地球...

About OneWeb SL0243

OneWeb SL0243 (NORAD 48774) is a oneweb constellation satellite launched May 28, 2021 by ONEWEBN of UK. It operates in LEO, CIRCULAR, POLAR, ONEWEB_TYPE orbit with a mass of 148.00 kg.

关于 OneWeb SL0243

正在加载描述...

即将过境

Passes for default location (London). Set your location on the main map for personalized predictions.

高度历史

Loading altitude history...

两行轨道根数

1 48774U 21045H 26171.18326753 -.00000024 00000-0 -98463-4 0 9996
2 48774 87.9003 258.6218 0001473 97.9504 262.1793 13.15549603244759
Epoch: Jun 20, 2026 • Age: 44 hours

当前状态

高度 1213.8 km
速度 7.25 km/s
星下点 76.93°N, 11.88°W
发射日期 May 28, 2021
运行时间 5 years
类型 internet

技术详情

分类 Payload
质量 148.00 kg
干质量 140.00 kg
总质量 148.00 kg
长度 1.30 m
直径 1.00 m
跨度 5.00 m
形状 Trapezoid+2 pan
制造商 ONEWUS
平台类型 ARROW
阶段状态 In Orbit
所有者/国家 ONEWEBN/UK

Most Searched